Flag for Japan Weather past 2 weeks in Yokohama, Japan

Now
50 °F

Light rain. Passing clouds.


Feels Like: 46 °F
Forecast: 47 / 59 °F
Wind: 9 mph from North

Location: Tokyo International Airport

Current Time: Jan 27, 2015 at 12:24:07 AM

Latest Report: Jan 27, 2015 at 12:00 AM


Visibility: 5 mi

Pressure: 29.98 "Hg

Humidity: 82%

Dew point: 45 °F

Location of YokohamaLocation

Historic Weather in Yokohama — Graph

°F

Yokohama temperature yesterday

Maximum temperature yesterday: 57 °F (at 7:30 PM)
Minimum temperature yesterday: 45 °F (at 2:30 AM)
Average temperature yesterday: 50 °F

Past Weeks' High & Low Weather Summary

 TemperatureHumidityPressure
High57 °F (Jan 26, 7:30 PM)94% (Jan 16, 11:30 PM)30.42 "Hg (Jan 16, 11:30 PM)
Low34 °F (Jan 19, 5:00 AM)21% (Jan 18, 11:00 AM)29.50 "Hg (Jan 23, 1:00 AM)
Average44 °F57%30.04 "Hg
* Reported Jan 11 11:00 PM — Jan 26 11:30 PM, Yokohama, Weather by CustomWeather, © 2014

Note: Actual official high and low records may vary slightly from our data, if they occured in-between our weather recording intervals... More about our weather records

Advertising

Yokohama weather history for previous 24 hours

 ConditionsComfort  
Time TempWeatherWind HumidityBarometerVisibility
11:30 PM
Jan 26
50 °FLight rain. Passing clouds.9 mph82%29.98 "Hg5 mi
11:00 PM50 °FLight rain. Passing clouds.8 mph88%30.01 "Hg5 mi
10:30 PM52 °FLight rain. Passing clouds.6 mph82%30.01 "Hg5 mi
10:00 PM52 °FLight rain. Passing clouds.3 mph88%30.01 "HgN/A
9:30 PM54 °FLight rain. Passing clouds.3 mph77%30.01 "HgN/A
9:00 PM54 °FLight rain. Passing clouds.2 mph82%30.04 "HgN/A
8:30 PM55 °FLight rain. Passing clouds.5 mph77%30.04 "HgN/A
8:00 PM55 °FScattered showers. Passing clouds.10 mph77%30.04 "HgN/A
7:30 PM57 °FPassing clouds.12 mph72%30.07 "HgN/A
7:00 PM55 °FPartly cloudy.13 mph72%30.07 "HgN/A
6:30 PM55 °FPassing clouds.13 mph72%30.07 "HgN/A
6:00 PM55 °FClear.13 mph72%30.07 "Hg10 mi
5:30 PM55 °FPassing clouds.12 mph72%30.07 "HgN/A
5:00 PM55 °FPassing clouds.3 mph67%30.07 "HgN/A
4:30 PM54 °FPassing clouds.6 mph77%30.07 "HgN/A
4:00 PM54 °FSunny.10 mph77%30.07 "Hg10 mi
3:30 PM54 °FPartly sunny.14 mph72%30.07 "HgN/A
3:00 PM54 °FPartly sunny.13 mph72%30.07 "HgN/A
2:30 PM54 °FPartly sunny.15 mph67%30.09 "HgN/A
2:00 PM54 °FScattered clouds.13 mph67%30.09 "HgN/A
1:30 PM50 °FSunny.9 mph71%30.12 "Hg10 mi
1:00 PM50 °FSunny.9 mph71%30.12 "Hg10 mi
12:00 PM50 °FPassing clouds.9 mph67%30.18 "HgN/A
11:30 AM48 °FPassing clouds.6 mph71%30.18 "HgN/A
11:00 AM50 °FPassing clouds.5 mph67%30.21 "HgN/A
10:30 AM48 °FPassing clouds.2 mph66%30.24 "HgN/A
10:00 AM48 °FBroken clouds.1 mph66%30.24 "HgN/A
9:30 AM46 °FBroken clouds.7 mph71%30.24 "HgN/A
9:00 AM46 °FPartly sunny.9 mph71%30.27 "HgN/A
8:30 AM46 °FPartly sunny.6 mph71%30.27 "HgN/A
8:00 AM46 °FPartly sunny.8 mph71%30.27 "HgN/A
7:30 AM45 °FPartly sunny.6 mph76%30.27 "HgN/A
7:00 AM45 °FBroken clouds.8 mph81%30.27 "HgN/A
6:30 AM45 °FPassing clouds.6 mph81%30.27 "HgN/A
6:00 AM45 °FPassing clouds.7 mph81%30.27 "HgN/A
5:30 AM45 °FPassing clouds.9 mph87%30.27 "HgN/A
5:00 AM45 °FPartly cloudy.9 mph87%30.27 "HgN/A
4:30 AM45 °FPartly cloudy.9 mph87%30.27 "HgN/A
4:00 AM45 °FPassing clouds.10 mph87%30.27 "Hg6 mi
3:30 AM45 °FPassing clouds.10 mph93%30.27 "HgN/A
3:00 AM45 °FLight rain. Fog.9 mph87%30.30 "Hg4 mi
2:30 AM45 °FLight rain. Fog.10 mph87%30.30 "Hg3 mi
2:00 AM46 °FLight rain. Passing clouds.9 mph82%30.33 "Hg4 mi
1:30 AM46 °FLight rain. Passing clouds.9 mph76%30.33 "HgN/A
1:00 AM48 °FLight rain. Passing clouds.7 mph71%30.33 "HgN/A
12:30 AM48 °FLight rain. Passing clouds.6 mph71%30.33 "HgN/A
12:00 AM48 °FPassing clouds.7 mph71%30.33 "HgN/A
Weather by CustomWeather, © 2014

See weather overviewHow to use our weather pages